TimePST,TemperatureF,Dew PointF,Humidity,Sea Level PressureIn,VisibilityMPH,Wind Direction,Wind SpeedMPH,Gust SpeedMPH,PrecipitationIn,Events,Conditions,WindDirDegrees,DateUTC
12:56 AM,32.0,30.2,93,29.98,9.0,South,3.5,-,N/A,,Overcast,170,2012-12-13 08:56:00
1:56 AM,33.1,30.0,89,30.03,10.0,South,4.6,-,N/A,,Overcast,170,2012-12-13 09:56:00
2:22 AM,33.8,30.2,87,30.00,10.0,SSE,4.6,-,N/A,,Overcast,160,2012-12-13 10:22:00
2:56 AM,33.1,30.9,92,30.03,10.0,Calm,Calm,-,N/A,,Overcast,0,2012-12-13 10:56:00
3:56 AM,33.8,28.4,81,29.99,10.0,Calm,Calm,-,N/A,,Scattered Clouds,0,2012-12-13 11:56:00
4:56 AM,32.0,30.0,92,30.04,10.0,Calm,Calm,-,N/A,,Partly Cloudy,0,2012-12-13 12:56:00
5:56 AM,30.9,28.9,92,30.06,10.0,Calm,Calm,-,N/A,,Mostly Cloudy,0,2012-12-13 13:56:00
6:30 AM,30.2,28.4,93,30.03,1.5,NNE,3.5,-,N/A,,Mostly Cloudy,20,2012-12-13 14:30:00
6:32 AM,30.2,28.4,93,30.03,0.8,NE,3.5,-,N/A,,Mostly Cloudy,40,2012-12-13 14:32:00
6:42 AM,30.2,28.4,93,30.03,1.5,Calm,Calm,-,N/A,,Mostly Cloudy,0,2012-12-13 14:42:00
6:44 AM,30.2,30.2,100,30.03,3.0,Calm,Calm,-,N/A,,Mostly Cloudy,0,2012-12-13 14:44:00
6:56 AM,30.9,30.0,96,30.07,6.0,Calm,Calm,-,N/A,,Scattered Clouds,0,2012-12-13 14:56:00
7:41 AM,30.2,28.4,93,30.03,1.0,Calm,Calm,-,N/A,,Mist,0,2012-12-13 15:41:00
7:43 AM,30.2,28.4,93,30.03,0.2,Calm,Calm,-,N/A,Fog,Light Freezing Fog,0,2012-12-13 15:43:00
7:56 AM,30.9,30.0,96,30.07,0.5,Calm,Calm,-,N/A,Fog,Light Freezing Fog,0,2012-12-13 15:56:00
8:26 AM,30.2,28.4,93,30.03,0.5,Calm,Calm,-,N/A,Fog,Light Freezing Fog,0,2012-12-13 16:26:00
8:40 AM,30.2,28.4,93,30.03,5.0,SSE,3.5,-,N/A,,Mostly Cloudy,160,2012-12-13 16:40:00
8:56 AM,30.0,28.9,96,30.07,5.0,SE,3.5,-,N/A,,Mostly Cloudy,140,2012-12-13 16:56:00
9:13 AM,32.0,30.2,93,30.03,1.0,North,3.5,-,N/A,,Mostly Cloudy,350,2012-12-13 17:13:00
9:15 AM,32.0,30.2,93,30.04,0.2,Calm,Calm,-,N/A,Fog,Fog,0,2012-12-13 17:15:00
9:26 AM,32.0,30.2,93,30.04,0.2,North,3.5,-,N/A,Fog,Fog,360,2012-12-13 17:26:00
9:49 AM,33.8,30.2,87,30.04,0.2,Calm,Calm,-,N/A,Fog,Fog,0,2012-12-13 17:49:00
9:56 AM,33.1,32.0,96,30.08,0.2,Calm,Calm,-,N/A,Fog,Fog,0,2012-12-13 17:56:00
10:13 AM,33.8,32.0,93,30.03,0.5,ENE,3.5,-,N/A,Fog,Fog,70,2012-12-13 18:13:00
10:16 AM,33.8,32.0,93,30.03,1.5,Calm,Calm,-,N/A,,Overcast,0,2012-12-13 18:16:00
10:19 AM,33.8,32.0,93,30.03,3.0,Calm,Calm,-,N/A,,Overcast,0,2012-12-13 18:19:00
10:48 AM,33.8,32.0,93,30.02,10.0,East,3.5,-,N/A,,Overcast,90,2012-12-13 18:48:00
10:56 AM,33.1,32.0,96,30.06,10.0,NE,3.5,-,N/A,,Overcast,50,2012-12-13 18:56:00
11:47 AM,35.6,33.8,93,30.00,2.0,ENE,6.9,-,N/A,,Overcast,70,2012-12-13 19:47:00
11:56 AM,34.0,32.0,92,30.04,5.0,East,3.5,-,N/A,,Overcast,90,2012-12-13 19:56:00
12:24 PM,35.6,32.0,87,29.98,5.0,East,6.9,-,N/A,,Mostly Cloudy,90,2012-12-13 20:24:00
12:56 PM,37.0,32.0,82,30.01,10.0,NNW,3.5,-,N/A,,Overcast,340,2012-12-13 20:56:00
1:56 PM,36.0,32.0,86,29.99,9.0,West,3.5,-,N/A,,Overcast,280,2012-12-13 21:56:00
4:56 PM,36.0,30.9,82,29.96,10.0,West,3.5,-,N/A,,Mostly Cloudy,280,2012-12-14 00:56:00
5:56 PM,35.1,30.9,85,29.95,10.0,South,3.5,-,N/A,,Overcast,170,2012-12-14 01:56:00
6:56 PM,35.1,30.9,85,29.93,10.0,SE,4.6,-,N/A,,Overcast,140,2012-12-14 02:56:00
7:03 PM,35.6,30.2,81,29.89,10.0,Calm,Calm,-,N/A,,Overcast,0,2012-12-14 03:03:00
7:25 PM,35.6,30.2,81,29.88,10.0,SE,5.8,-,N/A,,Overcast,130,2012-12-14 03:25:00
7:56 PM,35.1,30.9,85,29.92,10.0,ESE,3.5,-,N/A,,Overcast,120,2012-12-14 03:56:00
8:56 PM,35.1,30.9,85,29.91,10.0,East,3.5,-,N/A,,Overcast,100,2012-12-14 04:56:00
9:56 PM,30.9,28.9,92,29.91,10.0,ESE,4.6,-,N/A,,Overcast,110,2012-12-14 05:56:00
10:56 PM,30.0,28.0,92,29.90,9.0,SE,5.8,-,N/A,,Mostly Cloudy,130,2012-12-14 06:56:00
11:03 PM,30.2,28.4,93,29.86,9.0,SE,5.8,-,N/A,,Clear,130,2012-12-14 07:03:00
11:56 PM,30.0,28.0,92,29.89,10.0,ESE,3.5,-,N/A,,Clear,120,2012-12-14 07:56:00